Location: Slanting_Bridge
(35.6330°N, 80.9830°W)
Time: 17:34:56
(UTC-04:00)

Hamsat - Visible Passes

Search period start: 17 September 2014 00:00
Search period end: 27 September 2014 00:00
Orbit: 594 x 628 km, 97.6° (Epoch: 16 September)

Date Brightness Start Highest point End Pass type
(mag) Time Alt. Az. Time Alt. Az. Time Alt. Az.
19 Sep ? 19:48:12 10° WSW 19:50:22 14° W 19:52:32 10° WNW visible
21 Sep ? 06:14:44 10° ENE 06:17:02 14° E 06:19:20 10° SE visible
22 Sep ? 06:28:25 10° NE 06:31:40 21° E 06:34:52 10° SE visible
23 Sep ? 06:42:28 10° NNE 06:46:15 31° E 06:49:58 10° SSE visible
25 Sep ? 19:38:38 10° SW 19:41:26 17° W 19:44:14 10° NW visible
26 Sep ? 19:54:49 10° WSW 19:56:03 11° W 19:57:18 10° WNW visible
